Current weather by "City, St" or "zip code"  
 

Current Conditions: Montauk, Montauk Airport, NY

NULL


67.0 F

Last Updated on Sep 18 2020, 2:54 am EDT
Humidity: 87%
Wind Speed: N 0.0 mph
Barometer 29.93 in
Dewpoint: 63.0 F
Visibility: NULL mi
Precip: --
Heat Index: NA
Wind Chill: NA
Current conditions at:

Montauk, Montauk Airport, NY (KMTP)

Lat: 41.07306 Lon: 71.92333

Local Radar Image active severe weather and emergency alerts image image weather storm and storm spotter reports image weather observation monitoring service image
Local
Radar
Active
Alerts
Storm Reports Obs
Monitoring

Sign-up For Email & Text Message Weather Alert Notification Services



Advertise Here

Observation History for Montauk, Montauk Airport, NY


Time Wind
(mph)
Vis
(mi)
Weather Precip (in) Temperature (F) Relative
Humidity
Wind
Chill
(F)
Heat
Index
(F)
Pressure
Air Dwpt altimeter
(in)
sea level
(mb)
Rmks
2:54 am EDT N 0.0 NULL NULL -- 67.0 63.0 87% NA NA 29.93 1013.4
1:54 am EDT N 0.0 NULL NULL -- 69.0 66.9 93% NA NA 29.94 1013.9
12:54 am EDT N 0.0 NULL NULL -- 69.0 66.9 93% NA NA 29.96 1014.4
11:54 pm EDT N 0.0 NULL NULL -- 69.0 66.9 93% NA NA 29.98 1015.0
10:54 pm EDT N 0.0 NULL NULL -- 69.0 66.9 93% NA NA 29.99 1015.4
9:54 pm EDT N 0.0 NULL NULL -- 69.0 66.9 93% NA NA 29.99 1015.5
8:54 pm EDT N 0.0 NULL NULL -- 69.0 66.9 93% NA NA 30.00 1015.8
7:54 pm EDT 3.5 NULL NULL -- 70.0 66.0 87% NA NA 30.00 1015.8
6:54 pm EDT S 3.5 NULL NULL -- 70.0 66.0 87% NA NA 29.99 1015.4
5:54 pm EDT 5.8 NULL NULL -- 71.0 66.0 84% NA NA 29.99 1015.5
4:54 pm EDT S 4.6 NULL NULL -- 71.0 66.0 84% NA NA 29.99 1015.6
3:54 pm EDT 5.8 NULL NULL -- 71.0 64.9 81% NA NA 30.01 1016.1
2:54 pm EDT S 5.8 NULL NULL -- 72.0 64.9 79% NA NA 30.02 1016.4
1:54 pm EDT 6.9 NULL NULL -- 73.0 64.0 74% NA NA 30.03 1016.8
12:54 pm EDT SW 6.9 NULL NULL -- 73.0 64.0 74% NA NA 30.04 1017.2
11:54 am EDT S 5.8 NULL NULL -- 73.0 64.0 74% NA NA 30.06 1017.9
10:54 am EDT 4.6 NULL NULL -- 72.0 62.1 71% NA NA 30.07 1018.2
9:54 am EDT W 3.5 NULL NULL -- 71.0 64.0 79% NA NA 30.08 1018.6
8:54 am EDT W 5.8 NULL NULL -- 70.0 63.0 79% NA NA 30.08 1018.4
7:54 am EDT SW 3.5 NULL NULL -- 68.0 64.0 87% NA NA 30.07 1018.3
6:54 am EDT SW 3.5 NULL NULL -- 67.0 63.0 87% NA NA 30.07 1018.0
5:54 am EDT SW 3.5 NULL NULL -- 67.0 61.0 81% NA NA 30.07 1018.2
4:54 am EDT SW 3.5 NULL NULL -- 66.0 60.1 81% NA NA 30.08 1018.4
3:54 am EDT SW 3.5 NULL NULL -- 66.0 60.1 81% NA NA 30.08 1018.6

Regional Weather Observation


Montauk, Montauk Airport, NY (KMTP)

NULL
67.0 F

Chester, Chester Airport, CT (KSNC)

Fair
61.0 F

Westerly, Westerly State Airport, RI (KWST)

Overcast
63.0 F

Willimantic, Windham Airport, CT (KIJD)

Fair
61.0 F

Block Island State Airport, RI (KBID)

Mostly Cloudy
65.0 F

New Haven, Tweed-New Haven Airport, CT (KHVN)

Fair
64.0 F